Evansville Regional Airport
KEVV : now visible

Airfield :











YOU CAN JOIN US ON...

 
LOGIN :

Register | Disclaimer

   EN    FR    IT 

 









Legend :    VFR   Marginal VFR   IFR   Intensive IFR   Very Intensive IFR
Visi :
Ceiling :
>= 8 km
>= 3000ft
5 to 8 km
1000 to 3000 ft
1500m to 5 km
500 to 1000 ft
800 to 1500m
200 to 500 ft
< 800m
< 200 ft
Symbols :   Thunderstorms  Fog  Heavy snow  Heavy precipitations  Wind > 20 kt






- Airport Elevation : 418 ft
- IATA code : EVV


KEVV - Evansville Regional

CURRENT METAR :
  • 220254Z 00000KT 10SM BKN080 OVC100 06/M02 A3017 RMK AO2 SLP218 T00611022 53008

EXPIRED METARs :
  • 220154Z 00000KT 10SM FEW090 OVC100 07/M03 A3016 RMK AO2 SLP216 T00671033
  • 220054Z 00000KT 10SM CLR 06/M03 A3015 RMK AO2 SLP211 T00611033

TAF KEVV
Valid from the 22 at 00:00 until the 23 at 00:00 UTC


212320Z 2200/2224 30005KT P6SM VCSH BKN070
FM221300 29004KT P6SM SKC
FM221600 31009KT P6SM FEW060
KZID FIR / North America



MET'MAP, your aeronautical weather chart ! - Copyright ORBIFLY December 2007 - Disclaimer

ORBIFLY MET'MAP TEAM :

Programming & Development : Alexandra Zaïnal
Concept & original design : Baudouin d'Aumeries
Assistance for programming : Marc-Olivier Méhu
Technical & hardware support : Manuel Goepfert

Contact : metmap@orbifly.com




SOURCES & CREDITS :

   NOAA       Earth
Advisory